Regional Weather Roundup
Issued by NWS

Home | Current Version | Previous Version | Text Only | Print | Product List | Glossary On
Versions: 1 2 3 4 5 6 7 8 9 10 11 12 13 14 15 16 17 18 19 20 21 22 23 24 25 26 27 28 29 30 31 32 33 34 35 36 37 38 39 40 41 42 43 44 45 46 47 48 49 50
000
ASUS43 KMPX 262301
RWRMN
WEATHER ROUNDUP FOR MINNESOTA
NATIONAL WEATHER SERVICE TWIN CITIES/CHANHASSEN MN
600 PM CDT WED JUL 26 2017


NOTE: "FAIR" INDICATES FEW OR NO CLOUDS BELOW 12,000 FEET WITH NO
SIGNIFICANT WEATHER AND/OR OBSTRUCTIONS TO VISIBILITY. N/A MEANS
CURRENT SKY AND/OR WEATHER CONDITIONS ARE NOT AVAILABLE.

MNZ060>063-068>070-270000-
   Twin Cities Metro

CITY           SKY/WX    TMP DP  RH WIND       PRES   REMARKS
TWIN CITIES    MOSUNNY   84  62  47 N10       29.97F
ST PAUL        SUNNY     83  62  49 N10       29.97F
CRYSTAL        SUNNY     83  59  44 NW12      29.97S
BLAINE         MOSUNNY   82  61  47 NW8       29.99S
LAKEVILLE      MOSUNNY   81  64  57 N9        29.98F
EDEN PRAIRIE   SUNNY     83  62  49 NW8       29.97F
SOUTH ST PAUL  SUNNY     83  59  44 N6        29.97S
LAKE ELMO      FAIR      81  61  50 N8        29.99S
$$
MNZ001>005-007-008-013>017-022>024-027-028-270000-
   Northwest Minnesota

CITY           SKY/WX    TMP DP  RH WIND       PRES   REMARKS
BEMIDJI        MOSUNNY   77  58  52 NW10      30.04S
HALLOCK        MOSUNNY   81  59  47 NW12G17   30.04S
ROSEAU         SUNNY     81  63  54 N12       30.03R
WARROAD        SUNNY     81  61  50 NW7       30.02S
CROOKSTON      SUNNY     77  61  57 N8        30.06S
FOSSTON        MOSUNNY   81  61  50 N9        30.06S
DETROIT LAKES  SUNNY     77  61  57 N9        30.07S
MOORHEAD       SUNNY     81  59  47 NE12      30.05S
PARK RAPIDS    MOSUNNY   81  57  43 N13       30.04S
MAHNOMEN       FAIR      78  60  54 N9        30.05S
$$
MNZ006-009>011-018-025>026-270000-
   North Central Minnesota

CITY           SKY/WX    TMP DP  RH WIND       PRES   REMARKS
BAUDETTE       SUNNY     80  58  46 NW8       30.01S
FLAG ISLAND    SUNNY     79  57  47 N9        30.00S
INTL FALLS     CLOUDY    77  56  48 NW10      29.99S
WASKISH        MOSUNNY   75  61  60 NW6       30.02S
BIG FORK       SUNNY     79  55  44 NW3       30.02R
LONGVILLE      SUNNY     79  57  47 NW5       30.03S
GRAND RAPIDS   MOSUNNY   74  60  61 N8        30.03S
CRANE LAKE     PTSUNNY   75  57  53 N5        30.00S
ORR            MOSUNNY   75  57  53 CALM      29.98S
COOK             N/A     75  59  57 NW3       30.00S
WALKER         MOCLDY    77  59  54 NW7       30.03S
$$
MNZ012-019>021-037-270000-
   Northeast Minnesota

CITY           SKY/WX    TMP DP  RH WIND       PRES   REMARKS
DULUTH         MOSUNNY   80  59  48 NW10      29.98F
ELY            PTSUNNY   75  55  50 NW5       29.98S
HIBBING        PTSUNNY   76  58  53 NW9       29.99F
EVELETH        SUNNY     81  45  28 W9        30.00S
DULUTH HARBOR  MOSUNNY   82  63  51 NW3       29.95F
SILVER BAY     MOSUNNY   82  57  42 W5        29.94F
GRAND MARAIS     N/A     68  58  70 NW3       29.92R
G MARAIS ARPRT CLOUDY    72  54  53 W3        30.00R
$$
MNZ029>031-032-039>041-046>048-054>057-064-270000-
   West Central Minnesota

CITY           SKY/WX    TMP DP  RH WIND       PRES   REMARKS
FERGUS FALLS   MOSUNNY   79  63  57 NW8       30.04S
WHEATON        SUNNY     81  57  44 N8        30.06S
MORRIS         MOSUNNY   82  61  47 N13       30.04S
ALEXANDRIA     SUNNY     79  61  53 NW9       30.06S
ELBOW LAKE     FAIR      78  63  58 NW8       30.05F
WADENA         MOSUNNY   79  61  53 NW9       30.04S
GLENWOOD       SUNNY     81  61  50 NW13      30.05S
APPLETON       SUNNY     82  61  47 N10G16    30.03S
BENSON         MOSUNNY   81  61  50 NE10      30.05S
ORTONVILLE     SUNNY     81  59  47 MISG      30.05S
MADISON        SUNNY     84  61  45 N14       30.04S
WILLMAR        FAIR      81  64  57 NW8       30.04S
$$
MNZ033>034-036-042>043-049>051-058-059-270000-
   Central Minnesota

CITY           SKY/WX    TMP DP  RH WIND       PRES   REMARKS
ST CLOUD       SUNNY     83  61  47 NW13      30.00F
SAUK CENTRE    FAIR      81  60  49 NW10      30.04S
PAYNESVILLE    SUNNY     82  60  46 NW9       30.03S
AITKIN         SUNNY     79  59  50 NW7       30.00S
PINE RIVER     SUNNY     79  61  53 N10       30.05S
BRAINERD       SUNNY     80  58  46 VRB3      30.01F
STAPLES        MOSUNNY   81  57  44 NW9       30.03S
LONG PRAIRIE   FAIR      79  61  53 W8        30.04S
LITTLE FALLS   SUNNY     81  57  44 NW5       30.02S
LITCHFIELD     MOSUNNY   82  63  51 NW10      30.01F
BUFFALO        SUNNY     82  58  42 N9        30.01S
MAPLE LAKE     SUNNY     83  63  51 N8        30.01S
HUTCHINSON     SUNNY     81  65  57 NW7       30.02S
$$
MNZ037-044-045-052-053-270000-
   East Central Minnesota

CITY           SKY/WX    TMP DP  RH WIND       PRES   REMARKS
PRINCETON      MOSUNNY   82  61  47 W3        30.00S
MORA           SUNNY     79  57  47 N8        30.01F
CAMBRIDGE      MOSUNNY   82  64  54 N6        29.98S
RUSH CITY      SUNNY     80  61  52 NW5       29.99F
MOOSE LAKE     MOSUNNY   81  61  50 W7        29.98S
HINCKLEY       FAIR      81  63  54 NW6       29.99S
CLOQUET        SUNNY     81  55  41 NW10      29.99F
MCGREGOR       SUNNY     79  59  50 NW9G17    30.01S
$$
MNZ071>073-080-081-089-090-097-098-270000-
   Southwest Minnesota

CITY           SKY/WX    TMP DP  RH WIND       PRES   REMARKS
MONTEVIDEO     MOSUNNY   84  63  48 N13       30.04S
GRANITE FALLS  SUNNY     82  63  52 N9        30.04F
CANBY          MOSUNNY   83  58  41 N8        30.06S
MARSHALL       SUNNY     79  64  60 N9        30.04S
REDWOOD FALLS  SUNNY     81  61  50 N7        30.02S
OLIVIA         SUNNY     81  61  50 N9        30.02S
PIPESTONE      SUNNY     81  57  44 NE8       30.07S
WINDOM         SUNNY     81  63  54 N12       30.03S
WORTHINGTON    SUNNY     80  64  58 N12       30.04S
JACKSON        SUNNY     79  64  61 N9        30.03S
TRACY          SUNNY     79  64  59 N10       30.04S
SLAYTON        HVY RAIN  78  56  46 N8        30.06S
$$
MNZ065>067-074>077-082>085-091>093-270000-
   South Central Minnesota

CITY           SKY/WX    TMP DP  RH WIND       PRES   REMARKS
MANKATO        SUNNY     81  65  58 NW12      30.00S
NEW ULM        SUNNY     81  59  47 N6        30.01S
ST JAMES       SUNNY     81  64  57 NW9       30.01S
FAIRMONT       SUNNY     81  69  67 N10       30.00S
GLENCOE        SUNNY     81  66  60 NW10      30.00S
FARIBAULT      MOSUNNY   81  68  65 N6        29.99S
OWATONNA       SUNNY     81  70  69 NW10      29.98F
WASECA         MOSUNNY   79  70  73 N7        30.00F
ALBERT LEA     CLOUDY    81  72  74 N8        29.98F
$$
MNZ078>079-086>088-094>096-270000-
   Southeast Minnesota

CITY           SKY/WX    TMP DP  RH WIND       PRES   REMARKS
ROCHESTER      CLOUDY    79  72  79 N6        29.99F
RED WING       SUNNY     81  66  61 N6        29.96S
STANTON        MOSUNNY   81  68  64 N7        29.96F
DODGE CENTER   MOSUNNY   79  68  69 NW7       29.99F
WINONA         CLOUDY    79  70  73 NW6       29.96F
AUSTIN         CLOUDY    79  70  73 N5        29.98S
PRESTON        CLOUDY    79  69  72 NW7       29.99S
$$
ABBREVIATIONS USED IN REMARKS
   TC - TEMPERATURES IN CELSIUS
  WCI - WIND CHILL INDEX
   HX - HEAT INDEX
  VSB - VISIBILITY
$$




USA.gov is the U.S. government's official web portal to all federal, state and local government web resources and services.